ETH3715 EBLG-ELLX

Flight info

Callsign ETH3715
Flight time N/A
Altitude 13000
Route LNO
Aircraft MD11/H-SDE1E2E3FGHIJ2J3J4J5M1RWXY/LB1D1

Departure

Time N/A
Airport Liège Airport (EBLG)

Arrival

Time 2026-04-30 17:53
Airport Luxembourg-Findel International Airport (ELLX)
Time Latitude Longitude Altitude Speed Heading
2026-04-30 17:39 50.44704 5.93101 13318 ft 383 kts 175°
2026-04-30 17:41 50.23386 5.95338 13313 ft 383 kts 173°
2026-04-30 17:42 50.18093 5.95931 13315 ft 382 kts 172°
2026-04-30 17:42 50.10407 5.98919 13311 ft 382 kts 161°
2026-04-30 17:43 50.05072 5.99212 13335 ft 390 kts 184°
2026-04-30 17:44 49.97189 5.98391 13223 ft 356 kts 179°
2026-04-30 17:44 49.89932 5.98094 11730 ft 345 kts 178°
2026-04-30 17:46 49.78065 5.97663 8842 ft 340 kts 178°
2026-04-30 17:47 49.68634 5.97321 6289 ft 339 kts 178°
2026-04-30 17:48 49.62944 5.97358 2928 ft 239 kts 176°
2026-04-30 17:48 49.58505 5.96963 2956 ft 196 kts 173°
2026-04-30 17:49 49.55501 6.01008 3000 ft 165 kts 75°
2026-04-30 17:50 49.57371 6.06826 2927 ft 151 kts 70°
2026-04-30 17:51 49.58885 6.10950 2028 ft 142 kts 59°
2026-04-30 17:52 49.60432 6.15207 1698 ft 161 kts 63°
2026-04-30 17:53 49.62497 6.20777 1228 ft 30 kts 58°
2026-04-30 17:54 49.62815 6.21247 1231 ft 7 kts 30°
2026-04-30 17:55 49.63037 6.21516 1230 ft 18 kts 64°
2026-04-30 17:56 49.63271 6.22261 1213 ft 23 kts 64°
2026-04-30 17:57 49.63447 6.22791 1211 ft 17 kts 57°
2026-04-30 17:58 49.63629 6.22760 1215 ft 1 kts 353°